[[{"header":{"parameterUnit":"m.s-1","parameterCategory":1,"la1":30.2991,"la2":30.254,"lo1":-89.0895,"lo2":-89.0444,"dx":0.0017,"dy":0.0017,"nx":28,"ny":28,"refTime":"2022-12-05T15:00:00:Z","depth":0,"parameterNumber":2,"parameterNumberName":"U-component_of_WINDS"},"data":[0,0,0,0,0,0,0,0,0,0,0,0,0,0,0,0,0,0,0,0,0,0,0,0,0,0,0,0,0,0,0,0,0,0,0,0,0,0,0,0,0,0,0,0,0,0,0,0,0,0,0,0,0,0,0,0,0,0,0.075,0.075,0,0.078,0.078,0.0781,0.0755,0.0754,0.0753,0.0752,0.0784,0.0786,0.0788,0,0,0,0,0,0,0,0,0,0,0,0,0,0.0672,0.0673,0.075,0.075,0.0751,0.078,0.078,0.0781,0.0755,0.0754,0.0752,0.0751,0.0784,0.0786,0.0788,0,0,0,0,0,0,0,0,0,0,0,0,0,0.0704,0.0674,0.075,0.0741,0.0741,0.078,0.078,0.0781,0.0755,0.0754,0.0752,0.0751,0.0783,0.0786,0.0788,0.0838,0,0,0.0797,0.0798,0,0,0,0,0,0,0,0,0.0702,0.0707,0.0742,0.0742,0.0742,0.0762,0.0765,0.08,0.0756,0.075,0.0752,0.075,0.0778,0.0781,0.079,0.0839,0.0841,0.0797,0.0799,0.08,0.0801,0,0,0,0,0,0,0,0.07,0.0706,0.0762,0.0743,0.0742,0.0736,0.0739,0.0771,0.0773,0.075,0.0748,0.0752,0.0778,0.0788,0.0791,0.0841,0.0797,0.0799,0.0801,0.0802,0.0933,0.0934,0,0,0,0,0,0,0.0698,0.0704,0.0761,0.0763,0.0717,0.0739,0.0742,0.0757,0.0772,0.0773,0.0754,0.0751,0.0784,0.0788,0.0792,0.0852,0.08,0.0803,0.0804,0.0931,0.0933,0.0935,0,0,0,0,0,0,0.0697,0.0704,0.076,0.0733,0.0739,0.0742,0.0759,0.0759,0.0769,0.0775,0.0775,0.0764,0.0783,0.0788,0.0827,0.0853,0.0804,0.0806,0.0929,0.0931,0.0934,0.0972,0,0,0,0,0,0,0.0695,0.0703,0.0722,0.0733,0.0741,0.0793,0.0761,0.076,0.0773,0.077,0.0784,0.0785,0.0782,0.0823,0.0829,0.0856,0.0809,0.0926,0.093,0.0933,0.0968,0.0975,0.0981,0,0,0,0,0,0.0692,0.0731,0.0723,0.073,0.0764,0.0795,0.0799,0.0794,0.0775,0.0795,0.0798,0.0785,0.0848,0.0827,0.0834,0.0862,0.0925,0.0929,0.0933,0.0965,0.0974,0.0981,0,0,0,0,0,0,0.0723,0.0733,0.0724,0.0768,0.0781,0.0791,0.0814,0.0804,0.0823,0.0819,0.0812,0.0816,0.0857,0.0863,0.0838,0.0911,0.0884,0.0889,0.0906,0.0914,0.092,0.0919,0.0811,0,0,0,0,0,0.0735,0.0759,0.0766,0.0804,0.0811,0.0812,0.0825,0.082,0.0833,0.0839,0.0846,0.086,0.0883,0.0898,0.092,0.0968,0.0971,0.0991,0.0997,0.1003,0.1008,0.1035,0.1044,0.0948,0.0948,0.0948,0,0,0.0761,0.0769,0.0784,0.0811,0.082,0.0846,0.0817,0.0845,0.0864,0.0843,0.088,0.0886,0.0901,0.0945,0.0964,0.0951,0.1035,0.1008,0.1012,0.1015,0.104,0.1049,0.1058,0.0951,0.095,0.095,0,0,0.082,0.0828,0.0861,0.0871,0.0886,0.0886,0.0894,0.0905,0.0908,0.0945,0.093,0.0952,0.0992,0.1004,0.1015,0.1079,0.1067,0.1086,0.1121,0.1147,0.1155,0.1162,0.1186,0.1194,0.1091,0.1091,0.1091,0,0.085,0.0887,0.088,0.0909,0.0922,0.0903,0.0938,0.0948,0.0969,0.0978,0.0963,0.1013,0.1021,0.1068,0.1084,0.1093,0.1103,0.1085,0.1154,0.1161,0.1167,0.119,0.1199,0.1093,0.1093,0.1093,0.1092,0,0.0924,0.095,0.0975,0.0996,0.1011,0.1043,0.1041,0.1057,0.105,0.1052,0.109,0.11,0.1123,0.1134,0.1128,0.118,0.1171,0.1155,0.1128,0.1179,0.12,0.1209,0.1096,0.1096,0.1095,0.1094,0,0,0.1005,0.1021,0.103,0.104,0.1054,0.1075,0.1106,0.1128,0.1143,0.1158,0.1185,0.1218,0.1203,0.1216,0.1211,0.1234,0.1285,0.1215,0.1215,0.1229,0.1345,0.1359,0.1369,0.1277,0.1278,0.128,0.1344,0,0.1066,0.112,0.1114,0.1165,0.119,0.1173,0.12,0.1212,0.1214,0.1236,0.1238,0.1263,0.1241,0.1249,0.127,0.1274,0.1309,0.1269,0.1303,0.1304,0.1301,0.138,0.1394,0.1455,0.1353,0.1354,0.1355,0,0.1145,0.1163,0.1217,0.1228,0.1238,0.1263,0.1283,0.1304,0.1317,0.1317,0.1331,0.1322,0.1354,0.1325,0.1369,0.1342,0.1355,0.1359,0.1361,0.1366,0.1334,0.1388,0.1474,0.1484,0.1368,0.1367,0.1366,0,0.1201,0.1238,0.1275,0.1284,0.1297,0.1315,0.1322,0.1334,0.1348,0.1366,0.1375,0.1396,0.1409,0.1426,0.1423,0.1402,0.1468,0.1439,0.147,0.1471,0.1487,0.1486,0.1578,0.1492,0.1492,0.1492,0.1492,0,0.1271,0.1305,0.1301,0.1324,0.1362,0.1355,0.1392,0.1397,0.1407,0.1432,0.1417,0.1441,0.1434,0.1457,0.1455,0.1493,0.1498,0.15,0.1499,0.1502,0.1502,0.1512,0.1508,0.1494,0.1494,0.1493,0.1493,0,0.134,0.1339,0.1379,0.1388,0.1391,0.1419,0.1428,0.145,0.145,0.1481,0.1488,0.149,0.1516,0.1514,0.1544,0.1542,0.1589,0.1583,0.1585,0.1584,0.1617,0.1614,0.1719,0.1733,0.1637,0.1638,0.1639,0,0.1386,0.1412,0.1424,0.1439,0.1447,0.1472,0.1486,0.148,0.1495,0.1513,0.1533,0.1558,0.1578,0.1621,0.1625,0.1647,0.1642,0.1678,0.1646,0.1648,0.1645,0.1644,0.1648,0.1685,0.1686,0.1686,0.1687,0,0.1468,0.1466,0.1487,0.1508,0.1526,0.1542,0.1557,0.157,0.1565,0.1584,0.1611,0.1626,0.1656,0.1681,0.1703,0.171,0.1699,0.1697,0.1706,0.171,0.1711,0.1713,0.1604,0.1695,0.1694,0.1694,0.1693,0.1693,0.1528,0.155,0.1563,0.1587,0.1598,0.1612,0.1634,0.1637,0.1659,0.1683,0.1678,0.1708,0.1721,0.1749,0.1758,0.1782,0.177,0.1782,0.1786,0.179,0.1794,0.1705,0.1786,0.1786,0.1786,0.1785,0.1785,0,0.161,0.1617,0.164,0.1661,0.1681,0.1667,0.1683,0.17,0.1727,0.174,0.1759,0.1791,0.1815,0.1821,0.1844,0.1862,0.1858,0.1869,0.1869,0.1871,0.1803,0.1794,0.1873,0.1873,0.1872,0.1872,0.1872,0.1872,0.1655,0.1694,0.1693,0.1736,0.1743,0.1773,0.1783,0.1797,0.1807,0.1842,0.1863,0.1866,0.1876,0.1901,0.1923,0.1924,0.1934,0.1948,0.1947,0.1884,0.1875,0.1867,0.1859,0.1949,0.195,0.2013,0.2013,0.2014]},{"header":{"parameterUnit":"m.s-1","parameterCategory":1,"la1":30.2991,"la2":30.254,"lo1":-89.0895,"lo2":-89.0444,"dx":0.0017,"dy":0.0017,"nx":28,"ny":28,"refTime":"2022-12-05T15:00:00:Z","depth":0,"parameterNumber":3,"parameterNumberName":"V-component_of_WINDS"},"data":[0,0,0,0,0,0,0,0,0,0,0,0,0,0,0,0,0,0,0,0,0,0,0,0,0,0,0,0,0,0,0,0,0,0,0,0,0,0,0,0,0,0,0,0,0,0,0,0,0,0,0,0,0,0,0,0,0,0,2.9714,2.9715,0,2.9826,2.9827,2.9828,2.9833,2.9831,2.983,2.9829,2.9942,2.9947,2.9951,0,0,0,0,0,0,0,0,0,0,0,0,0,2.9504,2.9508,2.9714,2.9715,2.9717,2.9825,2.9827,2.9829,2.9833,2.9831,2.983,2.9828,2.9941,2.9946,2.9951,0,0,0,0,0,0,0,0,0,0,0,0,0,2.9604,2.9509,2.9714,2.9732,2.9735,2.9825,2.9827,2.9829,2.9833,2.9831,2.9829,2.9827,2.9939,2.9946,2.9952,3.0031,0,0,2.9971,2.9974,0,0,0,0,0,0,0,0,2.9598,2.9611,2.9728,2.9731,2.9734,2.9813,2.9795,2.9897,2.9834,2.9796,2.9829,2.9826,2.9901,2.991,2.9936,3.0037,3.0041,2.9972,2.9976,2.9979,2.998,0,0,0,0,0,0,0,2.9591,2.9606,2.9758,2.973,2.9733,2.9735,2.9747,2.9814,2.9858,2.9799,2.98,2.9813,2.9902,2.993,2.9938,3.0043,2.9972,2.9977,2.9981,2.9984,3.0217,3.0219,0,0,0,0,0,0,2.9581,2.9601,2.9755,2.9761,2.966,2.974,2.9753,2.979,2.9857,2.9866,2.9814,2.9813,2.992,2.9931,2.9942,3.0042,2.9979,2.9985,2.9988,3.0214,3.0217,3.022,0,0,0,0,0,0,2.9576,2.9594,2.975,2.9681,2.9701,2.9746,2.9787,2.9793,2.982,2.9869,2.9877,2.9834,2.9918,2.9933,3.001,3.0046,2.9987,2.9993,3.0212,3.0215,3.0218,3.0239,0,0,0,0,0,0,2.957,2.9593,2.9623,2.9682,2.9705,2.9816,2.9789,2.9797,2.9832,2.983,2.989,2.9898,2.9918,3.0,3.0016,3.0053,2.9998,3.0209,3.0213,3.0217,3.0236,3.0243,3.025,0,0,0,0,0,2.9563,2.9624,2.9625,2.9643,2.9744,2.9818,2.9831,2.9853,2.9834,2.9866,2.9897,2.9896,3.0039,3.0008,3.0026,3.0066,3.0206,3.0212,3.0217,3.0233,3.0242,3.0249,0,0,0,0,0,0,2.9568,2.9632,2.9634,2.9716,2.9761,2.9818,2.9858,2.9862,2.9913,2.991,2.9935,2.9948,3.0024,3.0052,3.0017,3.0147,3.012,3.0129,3.0126,3.0135,3.0142,3.0135,3.0004,0,0,0,0,0,2.9579,2.9633,2.9686,2.9754,2.9777,2.9814,2.9846,2.986,2.9908,2.9927,2.9964,3.001,3.0066,3.0102,3.0155,3.0239,3.0253,3.0275,3.0282,3.0288,3.0296,3.0344,3.0355,3.0237,3.0237,3.0237,0,0,2.9602,2.9644,2.9676,2.9756,2.9793,2.9849,2.983,2.9889,2.9932,2.9936,3.0011,3.0039,3.0093,3.0174,3.0211,3.0199,3.0331,3.0294,3.0298,3.0304,3.0351,3.0362,3.0372,3.0241,3.024,3.0239,0,0,2.9673,2.9709,2.9771,2.9808,2.9864,2.9888,2.9903,2.996,2.9979,3.0055,3.006,3.0109,3.0204,3.0243,3.0274,3.0361,3.0362,3.0377,3.0414,3.0461,3.047,3.0479,3.0511,3.0523,3.0385,3.0385,3.0385,0,2.9695,2.978,2.9802,2.9862,2.9898,2.9904,2.9967,3.0002,3.0072,3.0097,3.0082,3.0202,3.0239,3.033,3.0351,3.0376,3.0394,3.0371,3.0467,3.0476,3.0484,3.0516,3.0527,3.0387,3.0386,3.0386,3.0386,0,2.9804,2.9863,2.9906,2.9975,3.0015,3.0076,3.0108,3.0145,3.0155,3.0181,3.0259,3.0302,3.0366,3.0388,3.0397,3.0481,3.0472,3.0462,3.0436,3.0497,3.0527,3.0539,3.0389,3.0388,3.0388,3.0387,0,0,2.9883,2.9964,2.9979,3.0011,3.0074,3.012,3.0181,3.0244,3.0277,3.0325,3.0378,3.0458,3.045,3.0486,3.05,3.0541,3.0609,3.0526,3.0528,3.0542,3.0705,3.0714,3.0727,3.0609,3.0611,3.0613,3.0701,0,2.9963,3.0073,3.0095,3.0191,3.0247,3.0254,3.0307,3.0352,3.0377,3.0428,3.0456,3.0514,3.0497,3.0519,3.056,3.0592,3.0642,3.0585,3.066,3.0662,3.0648,3.0743,3.0752,3.0833,3.0713,3.0715,3.0716,0,3.007,3.0122,3.0224,3.0281,3.0305,3.0353,3.0413,3.046,3.0511,3.0527,3.0568,3.0578,3.0642,3.0612,3.0703,3.0664,3.0695,3.0715,3.0719,3.0728,3.0694,3.0756,3.0859,3.0872,3.0735,3.0733,3.0732,0,3.012,3.0215,3.0289,3.0316,3.0383,3.0417,3.0446,3.0495,3.0531,3.0583,3.0607,3.0666,3.0698,3.0743,3.0769,3.0744,3.0858,3.0829,3.0874,3.0873,3.0899,3.0897,3.101,3.0916,3.0916,3.0915,3.0915,0,3.0208,3.0271,3.0313,3.0358,3.0429,3.0453,3.0522,3.0551,3.0594,3.0646,3.0654,3.0703,3.0732,3.0785,3.0805,3.0878,3.0892,3.0907,3.0912,3.0908,3.0906,3.093,3.0926,3.0919,3.0918,3.0917,3.0917,0,3.0276,3.0307,3.0388,3.0445,3.0461,3.051,3.0559,3.0604,3.0629,3.0695,3.0711,3.0752,3.0814,3.0844,3.092,3.0934,3.1017,3.1017,3.1001,3.1003,3.1047,3.1043,3.1181,3.1201,3.1091,3.1092,3.1093,0,3.0332,3.038,3.0442,3.0478,3.0508,3.0565,3.0603,3.0628,3.0667,3.0729,3.0766,3.0829,3.0881,3.0981,3.1017,3.1076,3.1079,3.1123,3.1088,3.1083,3.1082,3.108,3.1086,3.113,3.1131,3.1132,3.1132,0,3.0427,3.044,3.0494,3.0554,3.0599,3.0647,3.0694,3.0722,3.0755,3.0799,3.0863,3.0903,3.0982,3.1045,3.1107,3.1137,3.1141,3.1143,3.1157,3.1154,3.1143,3.1152,3.102,3.114,3.1139,3.1139,3.1138,3.1138,3.0492,3.0536,3.0587,3.0648,3.0686,3.073,3.0776,3.0807,3.0861,3.0928,3.094,3.1008,3.1058,3.1142,3.1174,3.1229,3.1219,3.1238,3.1244,3.1249,3.1252,3.1133,3.124,3.124,3.1239,3.1239,3.1239,0,3.059,3.0623,3.0678,3.0745,3.0792,3.0791,3.0843,3.0884,3.0944,3.0991,3.1042,3.1116,3.1177,3.1218,3.128,3.1316,3.132,3.1332,3.1331,3.1338,3.1257,3.124,3.1328,3.1328,3.1328,3.1328,3.1328,3.1328,3.0646,3.0722,3.074,3.0835,3.0868,3.0936,3.0966,3.1007,3.1045,3.1128,3.1179,3.1205,3.125,3.1315,3.1371,3.1382,3.1405,3.1418,3.1429,3.1352,3.1343,3.1334,3.1319,3.1422,3.1423,3.1506,3.1507,3.1507]}]]